Pipestone, MN

4:54 AM CST on November 22, 2019 (GMT -0600)
Pipestone Municipal

Weather History for KPQN - October, 2019

Change the Weather History Date:

Monday, October 21, 2019

  Actual Average Record
Temperature  
Mean Temperature 44 °F -  
Max Temperature 48 °F 54 °F 73 °F (2003)
Min Temperature 39 °F 34 °F 26 °F (1997)
Degree Days  
Heating Degree Days 22    
Moisture  
Dew Point 44 °F    
Average Humidity 95    
Maximum Humidity 100    
Minimum Humidity 87    
Precipitation  
Precipitation 0.24 in - - ()
Sea Level Pressure  
Sea Level Pressure 29.39 in    
Wind  
Wind Speed 12 mph ()    
Max Wind Speed 36 mph    
Max Gust Speed 48 mph    
Visibility 8.8 miles    
Events Rain    
Averages and records for this station are not official NWS values.
T = Trace of Precipitation, MM = Missing Value Source: Averaged Metar Reports

Daily Weather History Graph

Daily Weather History Graph

Search for Another Location

Airport or City:

Astronomy

Oct. 21, 2019 Rise Set
Actual Time 7:47 AM CDT 6:31 PM CDT
Civil Twilight 7:17 AM CDT 7:01 PM CDT
Nautical Twilight 6:44 AM CDT 7:34 PM CDT
Astronomical Twilight 6:10 AM CDT 8:08 PM CDT
Moon No Moon Rise 3:13 PM CDT (10/21)
Length of Visible Light 11h 43m
Length of Day
10h 44m
Waning Gibbous, 48% of the Moon is Illuminated
Oct 21
Waning Gibbous
Oct 27
New
Nov 4
First Quarter
Nov 12
Full
Nov 19
Last Quarter

Hourly Weather History & Observations

Time (CDT) Temp. Windchill Dew Point Humidity Pressure Visibility Wind Dir Wind Speed Gust Speed Precip Events Conditions
12:17 AM 48.2 °F - 44.6 °F 87% 29.56 in 10.0 mi SSE 15.0 mph - N/A   Unknown
12:36 AM 48.2 °F - 44.6 °F 87% 29.54 in 10.0 mi SSE 12.7 mph - N/A Rain Rain
12:55 AM 48.2 °F - 46.4 °F 93% 29.52 in 10.0 mi SSE 11.5 mph 16.1 mph N/A Rain Light Rain
12:56 AM 48.2 °F - 46.4 °F 93% 29.52 in 10.0 mi SSE 10.4 mph 16.1 mph N/A Rain Light Rain
1:15 AM 48.2 °F - 46.4 °F 93% 29.51 in 10.0 mi SSE 10.4 mph 16.1 mph N/A Rain Light Rain
1:19 AM 48.2 °F - 46.4 °F 93% 29.51 in 10.0 mi SSE 10.4 mph 17.3 mph 0.03 in Rain Light Rain
1:37 AM 48.2 °F - 46.4 °F 93% 29.50 in 10.0 mi South 8.1 mph 19.6 mph 0.03 in   Unknown
1:56 AM 48.2 °F - 46.4 °F 93% 29.49 in 10.0 mi South 8.1 mph 20.7 mph N/A   Unknown
2:15 AM 48.2 °F - 46.4 °F 93% 29.49 in 10.0 mi SSE 10.4 mph 16.1 mph N/A   Unknown
2:16 AM 48.2 °F - 46.4 °F 93% 29.48 in 10.0 mi SSE 10.4 mph 16.1 mph N/A   Unknown
2:35 AM 48.2 °F - 46.4 °F 93% 29.47 in 10.0 mi SSE 12.7 mph - N/A   Unknown
2:36 AM 48.2 °F - 46.4 °F 93% 29.47 in 10.0 mi SSE 12.7 mph - N/A   Unknown
2:59 AM 48.2 °F - 46.4 °F 93% 29.45 in 10.0 mi SSE 10.4 mph - N/A   Unknown
3:16 AM 48.2 °F - 46.4 °F 93% 29.44 in 10.0 mi SSE 8.1 mph - N/A   Unknown
3:36 AM 48.2 °F - 46.4 °F 93% 29.44 in 10.0 mi SSE 9.2 mph - N/A   Unknown
3:55 AM 48.2 °F - 46.4 °F 93% 29.43 in 10.0 mi South 3.5 mph - N/A   Unknown
3:56 AM 48.2 °F - 46.4 °F 93% 29.43 in 10.0 mi Calm Calm - N/A   Unknown
4:15 AM 48.2 °F - 46.4 °F 93% 29.43 in 10.0 mi Calm Calm - N/A   Unknown
4:19 AM 48.2 °F - 46.4 °F 93% 29.43 in 10.0 mi Calm Calm - N/A   Unknown
4:38 AM 48.2 °F - 46.4 °F 93% 29.42 in 10.0 mi SW 3.5 mph - N/A   Unknown
4:55 AM 48.2 °F - 46.4 °F 93% 29.42 in 10.0 mi Calm Calm - N/A   Unknown
5:15 AM 48.2 °F - 46.4 °F 93% 29.42 in 10.0 mi Calm Calm - N/A   Unknown
5:16 AM 48.2 °F - 46.4 °F 93% 29.42 in 10.0 mi Calm Calm - N/A   Unknown
5:35 AM 48.2 °F - 46.4 °F 93% 29.41 in 7.0 mi Calm Calm - N/A   Overcast
5:57 AM 48.2 °F - 48.2 °F 100% 29.41 in 5.0 mi Calm Calm - N/A   Scattered Clouds
6:16 AM 48.2 °F - 48.2 °F 100% 29.39 in 2.0 mi Calm Calm - N/A   Mostly Cloudy
6:35 AM 48.2 °F - 48.2 °F 100% 29.38 in 1.5 mi Calm Calm - N/A   Overcast
6:36 AM 48.2 °F - 48.2 °F 100% 29.37 in 1.5 mi Calm Calm - N/A   Overcast
6:55 AM 48.2 °F - 48.2 °F 100% 29.38 in 1.2 mi Calm Calm - N/A   Overcast
6:56 AM 48.2 °F - 48.2 °F 100% 29.38 in 1.2 mi Calm Calm - N/A   Overcast
7:18 AM 48.2 °F - 48.2 °F 100% 29.36 in 2.0 mi Calm Calm - N/A   Overcast
7:36 AM 48.2 °F - 46.4 °F 93% 29.36 in 1.2 mi Calm Calm - N/A   Overcast
7:56 AM 48.2 °F - 46.4 °F 93% 29.36 in 2.0 mi North 6.9 mph - N/A   Overcast
8:15 AM 48.2 °F - 46.4 °F 93% 29.35 in 7.0 mi North 4.6 mph - N/A   Scattered Clouds
8:16 AM 48.2 °F - 46.4 °F 93% 29.35 in 7.0 mi North 5.8 mph - N/A   Scattered Clouds
8:35 AM 48.2 °F - 46.4 °F 93% 29.35 in 5.0 mi North 5.8 mph - N/A   Scattered Clouds
8:39 AM 48.2 °F - 46.4 °F 93% 29.34 in 4.0 mi North 6.9 mph - N/A   Scattered Clouds
8:58 AM 46.4 °F 43.5 °F 46.4 °F 100% 29.33 in 7.0 mi North 5.8 mph - N/A   Unknown
9:15 AM 46.4 °F 40.7 °F 46.4 °F 100% 29.33 in 10.0 mi NNE 12.7 mph - N/A   Unknown
9:35 AM 46.4 °F 42.9 °F 46.4 °F 100% 29.33 in 10.0 mi North 6.9 mph - N/A   Unknown
9:36 AM 46.4 °F 41.9 °F 46.4 °F 100% 29.33 in 10.0 mi North 9.2 mph - N/A   Unknown
9:55 AM 46.4 °F 41.9 °F 44.6 °F 93% 29.32 in 10.0 mi NNE 9.2 mph - N/A   Unknown
10:18 AM 46.4 °F 42.4 °F 44.6 °F 93% 29.32 in 10.0 mi North 8.1 mph - N/A   Unknown
10:37 AM 46.4 °F - 44.6 °F 93% 29.31 in 10.0 mi Calm Calm - N/A   Unknown
10:56 AM 46.4 °F 42.4 °F 44.6 °F 93% 29.30 in 10.0 mi North 8.1 mph - N/A   Unknown
11:15 AM 46.4 °F 41.5 °F 44.6 °F 93% 29.29 in 10.0 mi North 10.4 mph - N/A   Unknown
11:16 AM 46.4 °F 41.9 °F 44.6 °F 93% 29.29 in 10.0 mi North 9.2 mph - N/A   Unknown
11:35 AM 46.4 °F 40.4 °F 44.6 °F 93% 29.28 in 10.0 mi NNE 13.8 mph 20.7 mph N/A   Light Drizzle
11:57 AM 46.4 °F 41.5 °F 44.6 °F 93% 29.27 in 10.0 mi North 10.4 mph 18.4 mph N/A Rain Light Rain
12:15 PM 46.4 °F 41.1 °F 44.6 °F 93% 29.27 in 10.0 mi North 11.5 mph 18.4 mph N/A Rain Light Rain
12:16 PM 46.4 °F 41.1 °F 44.6 °F 93% 29.27 in 10.0 mi North 11.5 mph 18.4 mph N/A Rain Light Rain
12:35 PM 46.4 °F 41.5 °F 44.6 °F 93% 29.26 in 10.0 mi North 10.4 mph 18.4 mph N/A Rain Rain
12:36 PM 46.4 °F 41.1 °F 44.6 °F 93% 29.26 in 10.0 mi North 11.5 mph 19.6 mph 0.01 in Rain Rain
12:58 PM 44.6 °F 38.4 °F 42.8 °F 93% 29.27 in 10.0 mi North 12.7 mph 21.9 mph N/A Rain Light Rain
1:17 PM 44.6 °F 37.8 °F 42.8 °F 93% 29.28 in 10.0 mi North 15.0 mph 23.0 mph 0.02 in Rain Light Rain
1:36 PM 44.6 °F 37.8 °F 42.8 °F 93% 29.28 in 10.0 mi North 15.0 mph 19.6 mph 0.01 in Rain Light Rain
1:55 PM 44.6 °F 38.4 °F 42.8 °F 93% 29.28 in 10.0 mi North 12.7 mph 32.2 mph N/A Rain Light Rain
1:56 PM 44.6 °F 38.8 °F 42.8 °F 93% 29.28 in 10.0 mi North 11.5 mph 32.2 mph N/A Rain Light Rain
2:15 PM 42.8 °F 34.5 °F 41.0 °F 93% 29.28 in 10.0 mi North 18.4 mph 27.6 mph N/A Rain Rain
2:37 PM 42.8 °F 35.4 °F 41.0 °F 93% 29.28 in 10.0 mi North 15.0 mph 25.3 mph 0.02 in Rain Light Rain
2:56 PM 42.8 °F 35.4 °F 41.0 °F 93% 29.29 in 10.0 mi North 15.0 mph 25.3 mph N/A Rain Light Rain
3:15 PM 42.8 °F 34.5 °F 41.0 °F 93% 29.29 in 10.0 mi North 18.4 mph 26.5 mph N/A Rain Rain
3:16 PM 42.8 °F 34.5 °F 41.0 °F 93% 29.29 in 10.0 mi North 18.4 mph 26.5 mph 0.02 in Rain Rain
3:35 PM 42.8 °F 33.3 °F 41.0 °F 93% 29.30 in 10.0 mi North 24.2 mph 39.1 mph N/A Rain Rain
3:36 PM 42.8 °F 33.3 °F 41.0 °F 93% 29.30 in 10.0 mi North 24.2 mph 38.0 mph 0.04 in Rain Light Rain
3:59 PM 42.8 °F 33.5 °F 41.0 °F 93% 29.31 in 7.0 mi North 23.0 mph 39.1 mph N/A Rain Rain
4:16 PM 42.8 °F 33.3 °F 41.0 °F 93% 29.32 in 10.0 mi North 24.2 mph 42.6 mph 0.02 in Rain Light Rain
4:36 PM 42.8 °F 32.9 °F 41.0 °F 93% 29.33 in 7.0 mi North 26.5 mph 38.0 mph 0.01 in Rain Rain
4:55 PM 42.8 °F 33.5 °F 41.0 °F 93% 29.34 in 10.0 mi North 23.0 mph 35.7 mph N/A Rain Rain
4:56 PM 42.8 °F 33.8 °F 41.0 °F 93% 29.34 in 10.0 mi North 21.9 mph 35.7 mph N/A Rain Rain
5:15 PM 42.8 °F 34.3 °F 41.0 °F 93% 29.34 in 7.0 mi North 19.6 mph 31.1 mph N/A Rain Rain
5:19 PM 42.8 °F 34.3 °F 41.0 °F 93% 29.34 in 7.0 mi North 19.6 mph 31.1 mph 0.04 in Rain Light Rain
5:38 PM 42.8 °F 33.1 °F 41.0 °F 93% 29.35 in 7.0 mi North 25.3 mph 41.4 mph N/A Rain Rain
5:55 PM 42.8 °F 33.5 °F 42.8 °F 100% 29.36 in 7.0 mi NNW 23.0 mph 35.7 mph N/A Rain Light Rain
6:15 PM 42.8 °F 32.5 °F 42.8 °F 100% 29.36 in 7.0 mi NNW 28.8 mph 41.4 mph N/A Rain Light Rain
6:16 PM 42.8 °F 32.7 °F 42.8 °F 100% 29.36 in 7.0 mi NNW 27.6 mph 41.4 mph N/A Rain Light Rain
6:35 PM 42.8 °F 32.9 °F 42.8 °F 100% 29.37 in 10.0 mi NNW 26.5 mph 39.1 mph N/A Rain Light Rain
6:36 PM 42.8 °F 33.1 °F 42.8 °F 100% 29.37 in 10.0 mi NNW 25.3 mph 39.1 mph N/A Rain Light Rain
6:58 PM 42.8 °F 31.9 °F 42.8 °F 100% 29.38 in 10.0 mi North 32.2 mph 48.3 mph N/A Rain Light Rain
7:16 PM 42.8 °F 32.5 °F 42.8 °F 100% 29.39 in 10.0 mi North 28.8 mph 48.3 mph 0.01 in Rain Light Rain
7:36 PM 42.8 °F 31.9 °F 42.8 °F 100% 29.40 in 10.0 mi NNW 32.2 mph 44.9 mph 0.01 in Rain Light Rain
7:55 PM 42.8 °F 32.1 °F 42.8 °F 100% 29.42 in 10.0 mi NNW 31.1 mph 42.6 mph N/A Rain Light Rain
7:56 PM 42.8 °F 32.1 °F 42.8 °F 100% 29.42 in 10.0 mi North 31.1 mph 44.9 mph N/A Rain Light Rain
8:19 PM 42.8 °F 31.6 °F 41.0 °F 93% 29.43 in 10.0 mi NNW 34.5 mph 47.2 mph N/A Rain Light Rain
8:36 PM 42.8 °F 32.3 °F 42.8 °F 100% 29.44 in 10.0 mi NNW 29.9 mph 48.3 mph 0.01 in Rain Light Rain
8:55 PM 42.8 °F 31.6 °F 41.0 °F 93% 29.45 in 10.0 mi NNW 34.5 mph 46.0 mph 0.02 in Rain Light Rain
9:15 PM 42.8 °F 31.9 °F 41.0 °F 93% 29.46 in 10.0 mi NNW 32.2 mph 43.7 mph N/A Rain Light Rain
9:16 PM 42.8 °F 31.4 °F 41.0 °F 93% 29.46 in 10.0 mi NNW 35.7 mph 43.7 mph 0.02 in Rain Light Rain
9:35 PM 41.0 °F 30.2 °F 41.0 °F 100% 29.47 in 10.0 mi NNW 27.6 mph 40.3 mph N/A Rain Light Rain
9:39 PM 42.8 °F 32.9 °F 41.0 °F 93% 29.47 in 10.0 mi NNW 26.5 mph 40.3 mph N/A Rain Light Rain
9:57 PM 42.8 °F 32.7 °F 41.0 °F 93% 29.48 in 10.0 mi NNW 27.6 mph 40.3 mph N/A Rain Rain
10:15 PM 41.0 °F 29.8 °F 41.0 °F 100% 29.49 in 10.0 mi NNW 29.9 mph 36.8 mph N/A Rain Light Rain
10:35 PM 41.0 °F 31.1 °F 41.0 °F 100% 29.50 in 10.0 mi NNW 23.0 mph 42.6 mph N/A Rain Rain
10:36 PM 41.0 °F 31.1 °F 41.0 °F 100% 29.50 in 10.0 mi NNW 23.0 mph 42.6 mph 0.01 in Rain Rain
10:55 PM 39.2 °F 28.5 °F 39.2 °F 100% 29.52 in 10.0 mi NNW 24.2 mph 40.3 mph 0.01 in Rain Rain
10:56 PM 39.2 °F 27.8 °F 39.2 °F 100% 29.52 in 10.0 mi NNW 27.6 mph 40.3 mph N/A Rain Rain
11:19 PM 39.2 °F 29.0 °F 39.2 °F 100% 29.53 in 7.0 mi NNW 21.9 mph 39.1 mph N/A   Drizzle
11:36 PM 39.2 °F 28.7 °F 39.2 °F 100% 29.54 in 10.0 mi NNW 23.0 mph 41.4 mph N/A Rain Light Rain
11:56 PM 39.2 °F 28.0 °F 39.2 °F 100% 29.54 in 10.0 mi NNW 26.5 mph 41.4 mph N/A Rain Light Rain